Regional Weather Roundup
Issued by NWS Spokane, WA

Home | Current Version | Previous Version | Text Only | Print | Product List | Glossary On
Versions: 1 2 3 4 5 6 7 8 9 10 11 12 13 14 15 16 17 18 19 20 21 22 23 24 25 26 27 28 29 30 31 32 33 34 35 36 37 38 39 40 41 42 43 44 45 46 47 48 49 50
000
NZUS01 KOTX 251725
RWROTX

Eastern Washington/Northern Idaho Roundup
National Weather Service, Spokane WA
1000 AM PDT SUN JUN 25 2017

Note: "fair" indicated few or no clouds below 12,000 feet with no
significant weather and/or obstructions to visibility.

...Northeast Washington and Northern Idaho Panhandle...

CITY           SKY/WX    TMP DP  RH WIND       PRES   REMARKS
Spokane Intl   MOSUNNY   75  46  35 E8        30.12F
Spokane Downto SUNNY     78  48  34 E3        30.11F
Coeur d Alene  SUNNY     75  49  39 N14       30.13F
Deer Park      SUNNY     78  44  29 NE9       30.13S
Sandpoint      SUNNY     75  45  33 NE9       30.14F
Bonners Ferry  FAIR      70  50  49 S3        30.18F

...Southeast Washington and southern Idaho Panhandle...

CITY           SKY/WX    TMP DP  RH WIND       PRES   REMARKS
Walla Walla    SUNNY     79  46  31 CALM      30.03S
Pullman/Moscow SUNNY     77  46  33 E15       30.12F
Lewiston       SUNNY     77  50  38 NE5       30.06F
Lowell           N/A     70  51  51 CALM      30.10F
Grangeville    FAIR      72  48  43 NE3       30.15F

...Columbia Basin...

CITY           SKY/WX    TMP DP  RH WIND       PRES   REMARKS
Ephrata        SUNNY     84  41  21 NE8       30.05F
Moses Lake     SUNNY     84  45  25 VRB5      30.04F
Pasco          SUNNY     76  50  40 CALM      30.01F
Richland       SUNNY     80  52  37 SE3       30.01S
Hermiston      SUNNY     78  48  34 NE6       29.99F
Pendleton      SUNNY     81  41  24 CALM      30.02F

...East Slopes Cascades...

CITY           SKY/WX    TMP DP  RH WIND       PRES   REMARKS
The Dalles     SUNNY     78  45  30 CALM      29.97F
Yakima         SUNNY     82  51  34 W6        30.03F
Ellensburg     SUNNY     78  47  33 CALM      30.07F
Stampede Pass  MOSUNNY   74  44  34 VRB6      30.15F
Wenatchee      SUNNY     74  43  32 CALM      30.06F
Omak           SUNNY     78  44  29 CALM      30.08F
Chelan           N/A     75  45  33 MISG        N/A
Sunnyside      SUNNY     76  50  40 CALM      30.01S

...Southern British Columbia...

CITY           SKY/WX    TMP DP  RH WIND       PRES   REMARKS
Penticton      PTSUNNY   75  45  33 VRB2      30.06F
Castlegar      MOSUNNY   72  46  40 N8        30.14F
Cranbrook      MOSUNNY   70  43  37 CALM      30.23F
Osoyoos          N/A     75  45  33 SW2         N/A
Creston          N/A     72  50  46 NW1         N/A

...Western Montana...

CITY           SKY/WX    TMP DP  RH WIND       PRES   REMARKS
Kalispell      SUNNY     72  49  44 VRB6      30.22F
Missoula       SUNNY     70  43  37 CALM      30.23F

...Neighboring Cities...

CITY           SKY/WX    TMP DP  RH WIND       PRES   REMARKS
Seattle        MOSUNNY   77  56  48 W5        29.93F
Portland       MOSUNNY   80  53  39 NW7       29.86F
Boise          SUNNY     80  42  25 S7        30.13S
Great Falls    SUNNY     70  39  32 E10       30.29F
Calgary        MOSUNNY   70  45  40 S17G24    30.23F



USA.gov is the U.S. government's official web portal to all federal, state and local government web resources and services.